Tracking 28356 objects as of 8-Dec-2023
HD Live streaming from Space Station
objects crossing your sky now

SL-24 R/B

Track SL-24 R/B now!
10-day predictions


NORAD ID: 33397
Int'l Code: 2008-049B
Perigee: 681.7 km
Apogee: 1,177.6 km
Inclination: 98.6 °
Period: 103.5 minutes
Semi major axis: 7300 km
RCS: 5.3066 m2 (large)
Launch date: October 1, 2008
Source: Commonwealth of Independent States (former USSR) (CIS)
Launch site: Orenburg, Russia (OREN)

Note: This is a ROCKET BODY
Your satellite tracking list
Your tracking list is empty




NASA's NSSDC Master Catalog

Two Line Element Set (TLE):
1 33397U 08049B   23341.44754740  .00000058  00000-0  48555-4 0  9998
2 33397  98.6200 154.7066 0339573  39.9472  19.7552 13.91747592771186
Source of the keplerian elements: AFSPC